RH
29 31 32 34 35 36 35 34 34 36 40 42 55 64 67 70 76 77 82 81 80 78
34 35 37 41 42 41 42 42 41 42 44 49 56 67 77 83 87 83 81 82 82 84
40 41 41 45 47 48 48 47 49 51 53 58 67 72 78 90 95 92 90 87 84 82
47 48 49 48 49 51 53 53 55 59 61 63 72 79 90 95 97 96 97 92 88 84
52 54 54 52 51 51 52 56 58 62 62 65 73 77 91 95 97 95 93 87 85 83
56 56 54 54 54 54 52 53 55 58 57 60 62 59 63 68 72 72 79 80 73 77
61 56 55 55 52 49 46 46 41 45 41 38 36 43 48 47 45 41 41 40 43 43
63 62 58 56 50 47 42 43 41 39 34 29 28 30 34 41 39 34 31 30 27 26
64 57 56 49 43 41 42 43 46 37 33 32 30 31 30 27 25 25 27 26 26 20
60 54 44 37 46 45 44 41 41 40 35 27 26 32 28 25 22 20 19 20 19 13
57 47 41 44 46 46 48 44 39 31 28 26 25 25 27 26 25 21 17 17 20 16
49 34 39 37 41 47 43 40 37 36 34 30 26 21 20 22 21 21 18 17 18 17
41 36 34 38 46 47 52 46 41 32 26 22 20 26 18 15 14 14 13 13 14 18
37 40 45 44 41 41 41 38 36 32 26 20 18 22 23 17 15 15 16 15 16 18